Regional Weather Roundup
Issued by NWS Mt. Holly, NJ

Home | Current Version | Previous Version | Text Only | Print | Product List | Glossary On
Versions: 1 2 3 4 5 6 7 8 9 10 11 12 13 14 15 16 17 18 19 20 21 22 23 24 25 26 27
000
ASUS41 KPHI 230212
RWRPHI

REGIONAL WEATHER ROUNDUP
NATIONAL WEATHER SERVICE MOUNT HOLLY NJ
1000 PM EDT THU JUN 22 2017

NOTE:  "FAIR" INDICATES FEW OR NO CLOUDS BELOW 12,000 FEET WITH NO
SIGNIFICANT WEATHER AND/OR OBSTRUCTIONS TO VISIBILITY.

 * = STATION DOES NOT REPORT PRECIPITATION (E.G. RAIN, SNOW, ETC.)
        OR FOG.

NJZ015>026-230300-
SOUTHERN NEW JERSEY

CITY           SKY/WX    TMP DP  RH WIND       PRES   REMARKS
POMONA         MOCLDY    77  72  84 SW5       29.94
WILDWOOD*      PTCLDY    77  72  84 S5        29.97R
MILLVILLE      CLOUDY    78  75  90 CALM      29.95R
WRIGHTSTOWN    CLEAR     76  70  81 SW8       29.91R
MOUNT HOLLY    CLOUDY    78  70  76 S3        29.93R
TRENTON        CLOUDY    81  69  67 SW6       29.92R

$$
NJZ001>014-230300-
NORTHERN NEW JERSEY

CITY           SKY/WX    TMP DP  RH WIND       PRES   REMARKS
SUSSEX         CLOUDY    74  68  81 SW3       29.91S
ANDOVER*         N/A     73  67  81 CALM      29.93R
MORRISTOWN     CLEAR     81  66  61 W5        29.91S
NEWARK         CLOUDY    80  67  64 S7        29.90S
TETERBORO      MOCLDY    78  67  68 S6        29.89S
CALDWELL       MOCLDY    82  65  56 W3        29.91R
SOMERVILLE     CLOUDY    75  70  84 CALM      29.90R
ALLAIRE*       CLOUDY    78  70  76 SW8       29.94R
TOMS RIVER*    CLOUDY    75  72  90 SW5       29.95R

$$
PAZ043-044-047-054-055-060>062-066>071-230300-
EASTERN PENNSYLVANIA

CITY           SKY/WX    TMP DP  RH WIND       PRES   REMARKS
PHILADELPHIA   CLOUDY    83  70  64 SW10      29.93S
NORTH PHILA    CLOUDY    84  69  60 SW7       29.94S
BLUE BELL*     CLOUDY    77  70  78 SW6       29.95S
DOYLESTOWN     CLOUDY    80  70  71 S5        29.93R
QUAKERTOWN*    CLOUDY    79  72  78 SW5       29.95S
PERKASIE*      MOCLDY    77  72  83 SW3       29.95S
POTTSTOWN      CLOUDY    79  70  74 CALM      29.95S
LANCASTER      CLOUDY    82  72  71 SW7       29.95R
COATESVILLE    CLOUDY    77  72  83 CALM      29.98R
READING        LGT RAIN  79  75  87 W7        29.93R
ALLENTOWN      CLOUDY    81  69  67 SW8       29.92S
MOUNT POCONO   CLOUDY    72  66  81 W13       29.99R
HAZLETON         N/A     72  63  73 CALM      30.02S
LEHIGHTON      FAIR      72  70  94 CALM      29.94S
WILKES BARRE   PTCLDY    78  68  71 SW8       29.94R

$$
DEZALL-MDZ008-012-015-019-020-230300-
DELAWARE AND EASTERN MARYLAND

CITY           SKY/WX    TMP DP  RH WIND       PRES   REMARKS
WILMINGTON     CLOUDY    80  72  76 SW6       29.95R
DOVER          PTCLDY    79  78  99 S8        29.94R
GEORGETOWN     CLOUDY    79  73  82 CALM      29.97R
EASTON         CLOUDY    81  73  77 SW3       30.00R
ABERDEEN       CLOUDY    76  72  88 CALM      29.95R
PATUXENT       CLOUDY    79  73  82 CALM      29.97R
OCEAN CITY     CLOUDY    73  71  93 CALM      29.98R
WALLOPS ISLAND CLOUDY    78  75  90 SW5       29.98R
CAMBRIDGE      CLEAR     77  75  94 CALM      29.97R
SALISBURY      CLOUDY    77  76  96 CALM      29.97R

$$
PAZ001-021-NYZ056-072-MDZ011-DCZ001-230300-
OTHER NEARBY LOCATIONS

CITY           SKY/WX    TMP DP  RH WIND       PRES   REMARKS
HARRISBURG     CLOUDY    76  74  93 NW9       29.94R
WILLIAMSPORT   CLOUDY    76  70  82 W7        29.92S
BINGHAMTON     NOT AVBL
NEW YORK CITY  MOCLDY    78  66  66 MISG      29.94R
BALTIMORE      PTCLDY    79  73  82 S3        29.95S
WASHINGTON DC  MOCLDY    82  73  74 SW8       29.96R

$$




USA.gov is the U.S. government's official web portal to all federal, state and local government web resources and services.